QPF
0.00 0.00 0.00 0.00 0.00 0.00 0.00 0.00 0.00 0.00 0.00 0.00 0.00 0.00 0.00 0.00 0.00 0.00 0.00 0.00 0.00 0.00 0.00 0.00 0.00 0.00 0.00 0.00 0.00 0.00 0.00 0.00 0.00 0.00 0.00 0.00 0.00 0.00 0.00 0.00 0.00 0.00 0.00 0.00
0.00 0.00 0.00 0.00 0.00 0.00 0.00 0.00 0.00 0.00 0.00 0.00 0.00 0.00 0.00 0.00 0.00 0.00 0.00 0.00 0.00 0.00 0.00 0.00 0.00 0.00 0.00 0.00 0.00 0.00 0.00 0.00 0.00 0.00 0.00 0.00 0.00 0.00 0.00 0.00 0.00 0.00 0.00 0.00
0.00 0.00 0.00 0.00 0.00 0.00 0.00 0.00 0.00 0.00 0.00 0.00 0.00 0.00 0.00 0.00 0.00 0.00 0.00 0.00 0.00 0.00 0.00 0.00 0.00 0.00 0.00 0.00 0.00 0.00 0.00 0.00 0.00 0.00 0.00 0.00 0.00 0.00 0.00 0.00 0.00 0.00 0.00 0.00
0.00 0.00 0.00 0.00 0.00 0.00 0.00 0.00 0.00 0.00 0.00 0.00 0.00 0.00 0.00 0.00 0.00 0.00 0.00 0.00 0.00 0.00 0.00 0.00 0.00 0.00 0.00 0.00 0.00 0.00 0.00 0.00 0.00 0.00 0.00 0.00 0.00 0.00 0.00 0.00 0.00 0.00 0.00 0.00
0.00 0.00 0.00 0.00 0.00 0.00 0.00 0.00 0.00 0.00 0.00 0.00 0.00 0.00 0.00 0.00 0.00 0.00 0.00 0.00 0.00 0.00 0.00 0.00 0.00 0.00 0.00 0.00 0.00 0.00 0.00 0.00 0.00 0.00 0.00 0.00 0.00 0.00 0.00 0.00 0.00 0.00 0.00 0.00
0.00 0.00 0.00 0.00 0.00 0.00 0.00 0.00 0.00 0.00 0.00 0.00 0.00 0.00 0.00 0.00 0.00 0.00 0.00 0.00 0.00 0.00 0.00 0.00 0.00 0.00 0.00 0.00 0.00 0.00 0.00 0.00 0.00 0.00 0.00 0.00 0.00 0.00 0.00 0.00 0.00 0.00 0.00 0.00
0.00 0.00 0.00 0.00 0.00 0.00 0.00 0.00 0.00 0.00 0.00 0.00 0.00 0.00 0.00 0.00 0.00 0.00 0.00 0.00 0.00 0.00 0.00 0.00 0.00 0.00 0.00 0.00 0.00 0.00 0.00 0.00 0.00 0.00 0.00 0.00 0.00 0.00 0.00 0.00 0.00 0.00 0.00 0.00
0.00 0.00 0.00 0.00 0.00 0.00 0.00 0.00 0.00 0.00 0.00 0.00 0.00 0.00 0.00 0.00 0.00 0.00 0.00 0.00 0.00 0.00 0.00 0.00 0.00 0.00 0.00 0.00 0.00 0.00 0.00 0.00 0.00 0.00 0.00 0.00 0.00 0.00 0.00 0.00 0.00 0.00 0.00 0.00
0.00 0.00 0.00 0.00 0.00 0.00 0.00 0.00 0.00 0.00 0.00 0.00 0.00 0.00 0.00 0.00 0.00 0.00 0.00 0.00 0.00 0.00 0.00 0.00 0.00 0.00 0.00 0.00 0.00 0.00 0.00 0.00 0.00 0.00 0.00 0.00 0.00 0.00 0.00 0.00 0.00 0.00 0.00 0.00
0.00 0.00 0.00 0.00 0.00 0.00 0.00 0.00 0.00 0.00 0.00 0.00 0.00 0.00 0.00 0.00 0.00 0.00 0.00 0.00 0.00 0.00 0.00 0.00 0.00 0.00 0.00 0.00 0.00 0.00 0.00 0.00 0.00 0.00 0.00 0.00 0.00 0.00 0.00 0.00 0.00 0.00 0.00 0.00
0.00 0.00 0.00 0.00 0.00 0.00 0.00 0.00 0.00 0.00 0.00 0.00 0.00 0.00 0.00 0.00 0.00 0.00 0.00 0.00 0.00 0.00 0.00 0.00 0.00 0.00 0.00 0.00 0.00 0.00 0.00 0.00 0.00 0.00 0.00 0.00 0.00 0.00 0.00 0.00 0.00 0.00 0.00 0.00
0.00 0.00 0.00 0.00 0.00 0.00 0.00 0.00 0.00 0.00 0.00 0.00 0.00 0.00 0.00 0.00 0.00 0.00 0.00 0.00 0.00 0.00 0.00 0.00 0.00 0.00 0.00 0.00 0.00 0.00 0.00 0.00 0.00 0.00 0.00 0.00 0.00 0.00 0.00 0.00 0.00 0.00 0.00 0.00
0.00 0.00 0.00 0.00 0.00 0.00 0.00 0.00 0.00 0.00 0.00 0.00 0.00 0.00 0.00 0.00 0.00 0.00 0.00 0.00 0.00 0.00 0.00 0.00 0.00 0.00 0.00 0.00 0.00 0.00 0.00 0.00 0.00 0.00 0.00 0.00 0.00 0.00 0.00 0.00 0.00 0.00 0.00 0.00
0.00 0.00 0.00 0.00 0.00 0.00 0.00 0.00 0.00 0.00 0.00 0.00 0.00 0.00 0.00 0.00 0.00 0.00 0.00 0.00 0.00 0.00 0.00 0.00 0.00 0.00 0.00 0.00 0.00 0.00 0.00 0.00 0.00 0.00 0.00 0.00 0.00 0.00 0.00 0.00 0.00 0.00 0.00 0.00
0.00 0.00 0.00 0.00 0.00 0.00 0.00 0.00 0.00 0.00 0.00 0.00 0.00 0.00 0.00 0.00 0.00 0.00 0.00 0.00 0.00 0.00 0.00 0.00 0.00 0.00 0.00 0.00 0.00 0.00 0.00 0.00 0.00 0.00 0.00 0.00 0.00 0.00 0.00 0.00 0.00 0.00 0.00 0.00
0.00 0.00 0.00 0.00 0.00 0.00 0.00 0.00 0.00 0.00 0.00 0.00 0.00 0.00 0.00 0.00 0.00 0.00 0.00 0.00 0.00 0.00 0.00 0.00 0.00 0.00 0.00 0.00 0.00 0.00 0.00 0.00 0.00 0.00 0.00 0.00 0.00 0.00 0.00 0.00 0.00 0.00 0.00 0.00
0.00 0.00 0.00 0.00 0.00 0.00 0.00 0.00 0.00 0.00 0.00 0.00 0.00 0.00 0.00 0.00 0.00 0.00 0.00 0.00 0.00 0.00 0.00 0.00 0.00 0.00 0.00 0.00 0.00 0.00 0.00 0.00 0.00 0.00 0.00 0.00 0.00 0.00 0.00 0.00 0.00 0.00 0.00 0.00
0.00 0.00 0.00 0.00 0.00 0.00 0.00 0.00 0.00 0.00 0.00 0.00 0.00 0.00 0.00 0.00 0.00 0.00 0.00 0.00 0.00 0.00 0.00 0.00 0.00 0.00 0.00 0.00 0.00 0.00 0.00 0.00 0.00 0.00 0.00 0.00 0.00 0.00 0.00 0.00 0.00 0.00 0.00 0.00
0.00 0.00 0.00 0.00 0.00 0.00 0.00 0.00 0.00 0.00 0.00 0.00 0.00 0.00 0.00 0.00 0.00 0.00 0.00 0.00 0.00 0.00 0.00 0.00 0.00 0.00 0.00 0.00 0.00 0.00 0.00 0.00 0.00 0.00 0.00 0.00 0.00 0.00 0.00 0.00 0.00 0.00 0.00 0.00
0.00 0.00 0.00 0.00 0.00 0.00 0.00 0.00 0.00 0.00 0.00 0.00 0.00 0.00 0.00 0.00 0.00 0.00 0.00 0.00 0.00 0.00 0.00 0.00 0.00 0.00 0.00 0.00 0.00 0.00 0.00 0.00 0.00 0.00 0.00 0.00 0.00 0.00 0.00 0.00 0.00 0.00 0.00 0.00
0.00 0.00 0.00 0.00 0.00 0.00 0.00 0.00 0.00 0.00 0.00 0.00 0.00 0.00 0.00 0.00 0.00 0.00 0.00 0.00 0.00 0.00 0.00 0.00 0.00 0.00 0.00 0.00 0.00 0.00 0.00 0.00 0.00 0.00 0.00 0.00 0.00 0.00 0.00 0.00 0.00 0.00 0.00 0.00
0.00 0.00 0.00 0.00 0.00 0.00 0.00 0.00 0.00 0.00 0.00 0.00 0.00 0.00 0.00 0.00 0.00 0.00 0.00 0.00 0.00 0.00 0.00 0.00 0.00 0.00 0.00 0.00 0.00 0.00 0.00 0.00 0.00 0.00 0.00 0.00 0.00 0.00 0.00 0.00 0.00 0.00 0.00 0.00
0.00 0.00 0.00 0.00 0.00 0.00 0.00 0.00 0.00 0.00 0.00 0.00 0.00 0.00 0.00 0.00 0.00 0.00 0.00 0.00 0.00 0.00 0.00 0.00 0.00 0.00 0.00 0.00 0.00 0.00 0.00 0.00 0.00 0.00 0.00 0.00 0.00 0.00 0.00 0.00 0.00 0.00 0.00 0.00
0.00 0.00 0.00 0.00 0.00 0.00 0.00 0.00 0.00 0.00 0.00 0.00 0.00 0.00 0.00 0.00 0.00 0.00 0.00 0.00 0.00 0.00 0.00 0.00 0.00 0.00 0.00 0.00 0.00 0.00 0.00 0.00 0.00 0.00 0.00 0.00 0.00 0.00 0.00 0.00 0.00 0.00 0.00 0.00
0.00 0.00 0.00 0.00 0.00 0.00 0.00 0.00 0.00 0.00 0.00 0.00 0.00 0.00 0.00 0.00 0.00 0.00 0.00 0.00 0.00 0.00 0.00 0.00 0.00 0.00 0.00 0.00 0.00 0.00 0.00 0.00 0.00 0.00 0.00 0.00 0.00 0.00 0.00 0.00 0.00 0.00 0.00 0.00
0.00 0.00 0.00 0.00 0.00 0.00 0.00 0.00 0.00 0.00 0.00 0.00 0.00 0.00 0.00 0.00 0.00 0.00 0.00 0.00 0.00 0.00 0.00 0.00 0.00 0.00 0.00 0.00 0.00 0.00 0.00 0.00 0.00 0.00 0.00 0.00 0.00 0.00 0.00 0.00 0.00 0.00 0.00 0.00
0.00 0.00 0.00 0.00 0.00 0.00 0.00 0.00 0.00 0.00 0.00 0.00 0.00 0.00 0.00 0.00 0.00 0.00 0.00 0.00 0.00 0.00 0.00 0.00 0.00 0.00 0.00 0.00 0.00 0.00 0.00 0.00 0.00 0.00 0.00 0.00 0.00 0.00 0.00 0.00 0.00 0.00 0.00 0.00
MSLP
1011.15 1011.23 1012.30 1012.89 1013.84 1015.00 1016.52 1017.38 1017.96 1017.98 1017.66 1016.95 1016.50 1016.06 1015.92 1016.06 1016.80 1017.65 1018.59 1019.59 1020.75 1021.77 1022.83 1023.84 1024.59 1025.20 1025.59 1026.26 1026.84 1027.21 1027.59 1027.98 1028.19 1028.31 1028.38 1028.34 1028.26 1028.06 1027.83 1027.53 1027.19 1027.01 1026.94 1026.77
1011.05 1011.22 1011.74 1011.73 1012.13 1013.02 1014.03 1015.24 1015.82 1016.21 1016.00 1015.69 1014.95 1015.08 1015.08 1015.32 1015.95 1016.92 1017.95 1019.15 1020.37 1021.41 1022.63 1023.52 1024.18 1024.88 1025.68 1026.46 1027.02 1027.39 1027.81 1028.12 1028.30 1028.42 1028.47 1028.46 1028.43 1028.37 1028.18 1028.02 1027.71 1027.53 1027.49 1027.31
1011.01 1011.29 1011.38 1011.12 1010.63 1010.71 1011.20 1012.03 1013.24 1013.99 1013.80 1013.67 1013.60 1013.53 1013.60 1014.34 1015.13 1016.12 1017.22 1018.57 1019.86 1021.04 1022.30 1023.22 1024.01 1024.88 1025.81 1026.63 1027.17 1027.61 1027.99 1028.31 1028.47 1028.58 1028.65 1028.69 1028.71 1028.73 1028.53 1028.36 1028.13 1028.02 1028.00 1027.92
1011.31 1011.68 1011.36 1009.50 1008.96 1009.09 1009.45 1009.72 1010.48 1011.30 1011.65 1011.84 1011.92 1012.01 1012.73 1013.26 1014.36 1015.48 1016.66 1018.01 1019.46 1020.87 1022.14 1023.09 1024.21 1025.05 1026.02 1026.74 1027.38 1027.82 1028.22 1028.53 1028.77 1028.84 1028.95 1029.07 1029.08 1029.07 1028.93 1028.74 1028.49 1028.35 1028.45 1028.46
1012.11 1011.85 1010.13 1008.77 1008.68 1008.42 1008.25 1008.59 1008.65 1009.47 1010.21 1010.55 1011.10 1011.55 1012.25 1012.84 1013.90 1015.08 1016.31 1017.82 1019.46 1020.91 1022.13 1023.32 1024.35 1025.30 1026.06 1026.81 1027.47 1028.01 1028.54 1028.84 1029.11 1029.24 1029.31 1029.45 1029.47 1029.37 1029.29 1029.17 1028.94 1028.73 1028.87 1028.85
1012.57 1011.90 1010.19 1008.94 1008.67 1008.46 1008.09 1008.39 1007.86 1008.27 1009.07 1009.81 1010.68 1011.39 1012.10 1012.96 1013.91 1015.20 1016.65 1018.18 1019.69 1021.10 1022.38 1023.51 1024.52 1025.39 1026.21 1026.90 1027.59 1028.30 1028.91 1029.18 1029.47 1029.66 1029.72 1029.80 1029.89 1029.80 1029.76 1029.66 1029.55 1029.34 1029.31 1029.34
1012.81 1012.08 1010.40 1008.91 1009.02 1008.87 1008.91 1009.38 1008.63 1008.43 1008.63 1009.57 1010.50 1011.01 1011.86 1013.01 1014.44 1015.85 1017.22 1018.63 1020.06 1021.37 1022.53 1023.71 1024.79 1025.64 1026.36 1027.08 1027.87 1028.63 1029.10 1029.44 1029.74 1029.88 1029.97 1030.10 1030.22 1030.25 1030.18 1030.17 1030.12 1029.99 1029.92 1029.94
1012.59 1011.82 1010.68 1009.01 1009.34 1009.18 1009.15 1009.12 1008.79 1008.62 1008.62 1009.59 1010.72 1011.56 1012.40 1013.64 1014.99 1016.31 1017.66 1019.09 1020.42 1021.59 1022.83 1023.94 1024.81 1025.59 1026.40 1027.25 1028.18 1028.68 1029.12 1029.52 1029.99 1030.29 1030.33 1030.49 1030.68 1030.87 1030.89 1030.84 1030.83 1030.75 1030.77 1030.70
1010.78 1010.13 1009.60 1009.28 1009.12 1009.29 1009.24 1009.07 1008.84 1008.59 1008.69 1009.72 1011.12 1012.23 1013.17 1014.23 1015.46 1016.77 1018.16 1019.50 1020.64 1021.74 1022.92 1023.90 1024.66 1025.41 1026.22 1027.50 1028.19 1028.74 1029.17 1029.59 1030.07 1030.41 1030.73 1031.00 1031.25 1031.72 1031.92 1031.79 1031.80 1031.86 1031.82 1031.86
1009.70 1009.13 1009.11 1009.19 1009.15 1009.39 1009.47 1009.37 1009.38 1009.30 1009.29 1010.35 1011.43 1012.55 1013.56 1014.64 1015.86 1017.15 1018.48 1019.48 1020.50 1021.72 1022.90 1023.78 1024.52 1025.23 1026.38 1027.42 1028.14 1028.70 1029.15 1029.67 1030.24 1030.58 1031.09 1031.74 1032.06 1032.61 1032.99 1033.07 1032.95 1032.96 1032.85 1032.94
1008.98 1008.51 1008.54 1008.62 1008.87 1009.13 1009.46 1009.65 1009.70 1009.85 1009.89 1010.64 1011.78 1012.81 1013.93 1015.06 1016.17 1017.20 1018.19 1019.20 1020.35 1021.67 1022.79 1023.68 1024.53 1025.38 1026.45 1027.35 1028.01 1028.47 1029.09 1029.66 1030.04 1030.50 1031.19 1032.31 1033.13 1033.47 1033.75 1034.39 1034.42 1034.07 1034.04 1033.89
1007.94 1007.58 1007.79 1007.99 1008.17 1008.71 1009.18 1009.65 1009.87 1010.14 1010.46 1011.14 1012.08 1012.96 1014.19 1015.31 1016.37 1017.42 1018.29 1019.23 1020.40 1021.52 1022.57 1023.62 1024.60 1025.51 1026.51 1027.28 1027.81 1028.34 1029.06 1029.57 1030.07 1030.50 1030.84 1031.88 1032.86 1034.13 1034.53 1034.64 1034.70 1034.76 1034.75 1034.66
1007.40 1007.54 1007.79 1008.15 1008.18 1008.48 1008.92 1009.36 1009.79 1010.26 1010.73 1011.28 1012.18 1013.14 1014.29 1015.39 1016.48 1017.43 1018.40 1019.37 1020.35 1021.36 1022.47 1023.59 1024.57 1025.54 1026.45 1027.19 1027.67 1028.27 1028.76 1029.43 1030.00 1030.25 1030.78 1031.45 1031.97 1033.02 1034.09 1034.83 1034.86 1034.82 1034.79 1034.57
1007.47 1007.84 1008.00 1008.05 1007.92 1008.36 1008.51 1008.85 1009.64 1010.25 1010.78 1011.40 1012.14 1013.19 1014.35 1015.44 1016.55 1017.49 1018.36 1019.28 1020.29 1021.35 1022.42 1023.53 1024.52 1025.44 1026.29 1027.08 1027.57 1028.03 1028.67 1029.18 1029.90 1030.40 1030.98 1031.53 1032.17 1032.76 1033.25 1033.92 1034.41 1034.60 1034.64 1034.44
1007.35 1007.65 1007.58 1007.89 1008.01 1008.28 1008.52 1008.78 1009.40 1009.94 1010.64 1011.34 1012.13 1013.16 1014.34 1015.49 1016.61 1017.39 1018.32 1019.33 1020.31 1021.44 1022.50 1023.48 1024.38 1025.31 1026.22 1027.03 1027.66 1028.29 1029.02 1029.47 1029.92 1030.49 1031.13 1031.76 1032.31 1032.76 1033.14 1033.47 1033.83 1033.91 1034.17 1034.49
1007.15 1007.40 1007.64 1007.90 1008.13 1008.19 1008.46 1008.84 1009.32 1009.80 1010.53 1011.37 1012.16 1013.21 1014.43 1015.70 1016.96 1017.53 1018.45 1019.29 1020.17 1021.23 1022.43 1023.42 1024.32 1025.19 1026.27 1027.12 1027.79 1028.37 1028.94 1029.45 1030.04 1030.69 1031.39 1031.74 1032.09 1032.48 1032.85 1033.20 1033.47 1033.80 1034.23 1034.52
1006.71 1007.00 1007.18 1007.36 1007.66 1008.10 1008.17 1008.64 1009.00 1009.71 1010.44 1011.38 1012.35 1013.48 1014.69 1015.94 1017.15 1017.84 1018.50 1019.28 1020.20 1021.23 1022.30 1023.34 1024.36 1025.28 1026.20 1026.91 1027.49 1028.26 1029.05 1029.63 1030.20 1030.81 1031.32 1031.57 1031.92 1032.33 1032.71 1033.08 1033.46 1033.82 1034.49 1035.13
1006.47 1006.72 1006.86 1007.14 1007.54 1007.84 1008.11 1008.33 1008.83 1009.32 1010.23 1011.34 1012.63 1013.85 1015.04 1016.24 1017.02 1017.81 1018.43 1019.27 1020.43 1021.49 1022.40 1023.29 1024.19 1025.16 1025.99 1026.71 1027.43 1028.09 1028.87 1029.60 1030.15 1030.55 1030.98 1031.31 1031.64 1031.92 1032.25 1032.61 1033.00 1033.56 1034.28 1035.22
1006.29 1006.41 1006.65 1006.85 1007.19 1007.38 1007.74 1008.22 1008.70 1009.28 1010.19 1011.44 1012.86 1014.23 1015.40 1016.41 1016.95 1017.69 1018.47 1019.47 1020.57 1021.35 1022.02 1022.93 1023.98 1024.93 1025.71 1026.44 1027.14 1027.93 1028.63 1029.34 1029.95 1030.21 1030.46 1030.88 1031.34 1031.64 1032.06 1032.46 1032.92 1033.35 1033.83 1034.51
1005.89 1006.26 1006.43 1006.58 1006.91 1007.25 1007.70 1008.14 1008.77 1009.55 1010.24 1011.61 1013.21 1014.74 1016.00 1016.82 1017.28 1017.89 1018.35 1019.06 1019.15 1019.83 1021.31 1022.46 1023.62 1024.39 1025.02 1025.84 1026.89 1027.49 1028.09 1028.69 1029.25 1029.50 1030.08 1030.62 1031.03 1031.35 1031.58 1032.01 1032.44 1032.92 1033.45 1033.89
1004.98 1005.58 1005.97 1006.32 1006.68 1006.97 1007.49 1008.11 1008.77 1009.68 1010.60 1012.22 1013.22 1014.54 1015.43 1016.40 1017.34 1017.59 1018.21 1018.75 1019.10 1020.00 1020.90 1022.01 1022.85 1023.66 1024.48 1025.36 1026.31 1026.86 1027.33 1027.91 1028.51 1029.03 1029.57 1030.04 1030.58 1031.02 1031.38 1031.67 1032.06 1032.53 1033.00 1033.37
1004.34 1004.81 1005.32 1005.94 1006.31 1006.82 1007.15 1007.72 1008.57 1009.69 1010.86 1012.18 1013.29 1014.41 1015.41 1016.25 1017.28 1017.49 1017.22 1017.45 1018.42 1019.26 1020.33 1021.51 1022.29 1022.93 1023.55 1024.47 1025.61 1026.07 1026.64 1027.16 1027.66 1028.16 1028.80 1029.53 1030.11 1030.43 1030.78 1031.04 1031.37 1031.81 1032.33 1032.69
1003.65 1003.92 1004.30 1004.95 1005.63 1006.05 1006.82 1007.34 1008.31 1009.27 1010.55 1011.73 1012.78 1013.77 1014.23 1014.85 1015.77 1016.66 1017.11 1017.25 1017.88 1018.79 1019.73 1020.73 1021.37 1022.16 1022.87 1023.83 1024.62 1025.18 1025.69 1026.33 1026.84 1027.24 1027.86 1028.62 1029.29 1030.03 1030.43 1030.78 1031.01 1031.42 1031.72 1031.95
1003.23 1003.45 1003.70 1004.13 1004.90 1005.52 1005.93 1006.66 1007.60 1008.62 1010.02 1011.13 1012.14 1012.75 1013.38 1014.38 1015.40 1015.69 1016.05 1016.60 1017.16 1018.21 1018.93 1019.74 1020.62 1021.42 1022.35 1023.29 1023.98 1024.42 1024.90 1025.54 1026.01 1026.59 1027.40 1028.12 1028.80 1029.23 1029.67 1029.84 1029.95 1030.04 1030.48 1030.93
1003.42 1003.29 1003.51 1003.78 1004.34 1004.76 1005.25 1006.24 1007.32 1008.46 1009.70 1010.65 1011.66 1012.60 1012.86 1013.23 1013.90 1014.65 1015.40 1015.93 1016.77 1017.78 1018.55 1019.25 1020.06 1021.14 1022.11 1022.65 1023.24 1023.86 1024.36 1024.82 1025.43 1026.24 1026.84 1027.44 1027.95 1028.39 1028.69 1028.92 1029.13 1029.51 1029.94 1030.22
1003.36 1003.09 1003.26 1003.62 1004.05 1004.64 1005.03 1005.88 1006.84 1007.95 1009.06 1010.14 1011.20 1011.97 1012.29 1012.74 1013.48 1014.10 1014.89 1015.62 1016.59 1017.24 1018.10 1019.03 1019.90 1020.77 1021.39 1022.02 1022.70 1023.33 1023.81 1024.43 1025.21 1025.79 1026.30 1026.70 1027.15 1027.47 1027.73 1028.03 1028.37 1028.65 1028.74 1028.99
1003.21 1003.26 1003.53 1003.84 1004.12 1004.48 1005.04 1005.80 1006.71 1007.61 1008.51 1009.50 1010.42 1011.33 1011.91 1012.54 1013.22 1013.78 1014.74 1015.51 1016.15 1016.91 1017.74 1018.63 1019.34 1020.05 1020.78 1021.53 1022.19 1022.83 1023.34 1023.85 1024.30 1024.96 1025.45 1025.92 1026.12 1026.41 1026.76 1027.10 1027.38 1027.45 1027.67 1027.87
Thickness
5618 5621 5612 5605 5600 5601 5580 5579 5578 5573 5576 5581 5586 5595 5599 5601 5593 5585 5576 5567 5556 5546 5536 5526 5518 5508 5501 5489 5477 5467 5456 5444 5434 5423 5412 5401 5389 5377 5367 5356 5344 5332 5322 5319
5603 5614 5610 5609 5615 5613 5604 5591 5588 5590 5585 5594 5611 5605 5603 5602 5597 5587 5579 5568 5557 5548 5537 5528 5520 5510 5498 5486 5474 5464 5454 5444 5434 5423 5413 5402 5391 5379 5369 5359 5348 5336 5325 5319
5592 5604 5603 5587 5601 5624 5624 5619 5604 5589 5600 5613 5611 5611 5612 5606 5600 5592 5583 5571 5560 5550 5538 5529 5520 5507 5494 5482 5472 5462 5452 5443 5433 5424 5413 5402 5392 5381 5371 5362 5353 5341 5329 5320
5590 5591 5567 5614 5637 5635 5628 5634 5630 5621 5621 5621 5622 5623 5618 5616 5604 5596 5587 5575 5562 5550 5537 5527 5514 5503 5490 5480 5469 5460 5451 5441 5432 5423 5412 5402 5392 5382 5373 5365 5357 5347 5335 5325
5574 5577 5607 5626 5628 5630 5629 5626 5642 5632 5628 5630 5626 5623 5616 5618 5610 5599 5588 5575 5560 5547 5534 5522 5510 5499 5489 5478 5468 5458 5448 5439 5430 5421 5411 5401 5392 5383 5375 5367 5360 5351 5341 5331
5574 5577 5591 5618 5629 5637 5640 5612 5646 5644 5634 5629 5624 5604 5608 5613 5609 5596 5585 5571 5556 5543 5530 5519 5507 5496 5486 5476 5466 5456 5445 5437 5428 5419 5410 5401 5392 5384 5377 5369 5362 5354 5345 5336
5565 5567 5594 5626 5625 5631 5606 5612 5633 5637 5636 5628 5617 5621 5617 5614 5601 5591 5579 5565 5552 5539 5528 5515 5503 5493 5483 5474 5463 5452 5443 5435 5426 5419 5411 5402 5394 5385 5378 5370 5363 5356 5348 5339
5564 5572 5573 5626 5618 5612 5620 5627 5631 5633 5636 5627 5621 5617 5613 5605 5595 5585 5572 5559 5548 5537 5525 5513 5502 5492 5483 5472 5460 5451 5443 5435 5425 5417 5411 5403 5394 5385 5378 5371 5363 5357 5349 5342
5587 5589 5613 5619 5621 5624 5627 5626 5630 5634 5636 5627 5616 5610 5606 5599 5590 5579 5566 5555 5546 5536 5524 5513 5503 5493 5484 5469 5459 5451 5443 5435 5426 5418 5410 5402 5394 5383 5374 5369 5362 5356 5349 5341
5594 5609 5612 5615 5622 5622 5624 5624 5626 5629 5631 5621 5613 5607 5601 5595 5585 5574 5563 5555 5547 5535 5523 5512 5503 5494 5481 5469 5459 5451 5443 5434 5426 5419 5410 5399 5392 5381 5371 5365 5360 5354 5349 5340
5595 5611 5616 5619 5620 5622 5621 5622 5623 5624 5626 5619 5609 5603 5596 5588 5580 5572 5564 5556 5547 5535 5523 5513 5503 5492 5481 5470 5461 5453 5444 5436 5429 5422 5411 5397 5387 5380 5371 5361 5355 5351 5344 5339
5592 5615 5619 5621 5626 5625 5620 5617 5619 5618 5616 5612 5606 5600 5593 5585 5578 5570 5563 5555 5545 5535 5524 5513 5502 5491 5480 5471 5463 5455 5445 5438 5430 5424 5417 5404 5392 5378 5371 5364 5357 5350 5344 5340
5607 5619 5620 5620 5625 5627 5621 5620 5620 5617 5614 5608 5603 5598 5591 5583 5576 5567 5561 5553 5544 5535 5525 5513 5502 5491 5480 5472 5465 5457 5450 5441 5433 5428 5420 5411 5403 5391 5376 5366 5360 5354 5348 5344
5613 5613 5611 5618 5621 5624 5626 5626 5618 5617 5613 5608 5603 5598 5589 5582 5574 5567 5559 5552 5544 5534 5524 5513 5503 5492 5482 5473 5467 5460 5452 5443 5436 5428 5420 5412 5403 5394 5385 5377 5368 5360 5353 5347
5610 5613 5617 5621 5624 5623 5625 5624 5619 5616 5611 5606 5603 5596 5588 5581 5572 5566 5559 5551 5543 5532 5522 5511 5504 5493 5483 5474 5467 5459 5450 5444 5437 5429 5420 5411 5402 5394 5387 5380 5373 5368 5360 5352
5608 5611 5614 5615 5616 5621 5622 5621 5616 5614 5609 5604 5600 5596 5589 5581 5568 5564 5557 5550 5542 5532 5521 5512 5501 5494 5483 5474 5466 5459 5452 5445 5438 5429 5419 5412 5404 5397 5390 5384 5378 5371 5362 5354
5602 5606 5612 5615 5617 5618 5622 5622 5621 5616 5610 5604 5600 5595 5588 5568 5566 5562 5556 5550 5540 5529 5521 5511 5501 5492 5483 5476 5469 5460 5451 5444 5436 5428 5419 5413 5406 5398 5390 5384 5377 5371 5360 5352
5609 5612 5616 5617 5616 5617 5619 5623 5622 5620 5613 5608 5601 5593 5572 5568 5568 5562 5555 5549 5537 5526 5519 5511 5503 5493 5485 5477 5469 5461 5453 5444 5436 5429 5421 5414 5408 5402 5395 5388 5380 5372 5363 5354
5608 5611 5614 5617 5619 5622 5623 5622 5622 5622 5614 5606 5592 5583 5573 5564 5566 5560 5553 5539 5529 5527 5521 5513 5501 5493 5486 5478 5471 5462 5453 5444 5436 5430 5425 5417 5410 5403 5395 5387 5379 5372 5365 5357
5606 5609 5613 5616 5620 5622 5621 5623 5622 5619 5615 5602 5580 5569 5565 5559 5555 5552 5553 5546 5544 5538 5525 5514 5503 5497 5490 5482 5472 5464 5456 5448 5440 5435 5426 5418 5410 5404 5398 5390 5382 5374 5366 5360
5609 5610 5613 5615 5617 5620 5619 5620 5615 5615 5609 5587 5586 5573 5570 5564 5555 5553 5553 5547 5544 5534 5527 5515 5509 5501 5493 5483 5473 5467 5460 5452 5443 5436 5428 5420 5412 5404 5397 5390 5383 5376 5368 5362
5610 5612 5613 5612 5616 5613 5618 5619 5619 5610 5599 5584 5579 5572 5564 5561 5553 5554 5559 5556 5547 5536 5528 5518 5511 5504 5497 5487 5476 5470 5462 5455 5448 5440 5432 5421 5413 5406 5400 5394 5387 5379 5371 5364
5612 5615 5618 5616 5615 5620 5617 5620 5613 5608 5591 5583 5579 5574 5575 5574 5565 5558 5555 5555 5549 5538 5531 5521 5515 5506 5498 5489 5481 5474 5466 5458 5451 5445 5436 5426 5416 5406 5398 5391 5385 5377 5371 5365
5611 5615 5618 5621 5618 5619 5621 5622 5616 5611 5596 5593 5584 5579 5581 5573 5564 5563 5561 5555 5549 5539 5535 5527 5517 5508 5499 5490 5482 5476 5469 5461 5454 5445 5435 5425 5416 5409 5400 5394 5389 5384 5376 5368
5604 5611 5614 5617 5616 5619 5622 5619 5615 5609 5600 5595 5587 5578 5581 5578 5572 5567 5561 5556 5546 5540 5533 5524 5516 5506 5497 5491 5483 5475 5468 5461 5452 5443 5434 5426 5418 5409 5402 5396 5389 5381 5373 5366
5599 5608 5612 5613 5613 5615 5619 5617 5613 5608 5602 5594 5584 5579 5581 5577 5571 5567 5561 5553 5545 5539 5532 5522 5513 5505 5498 5490 5482 5473 5466 5458 5447 5440 5432 5425 5417 5410 5404 5396 5388 5380 5375 5368
5599 5602 5605 5606 5609 5613 5616 5613 5609 5604 5599 5592 5586 5581 5578 5573 5568 5565 5556 5549 5545 5538 5529 5520 5513 5505 5497 5488 5480 5471 5464 5456 5448 5439 5431 5424 5417 5411 5403 5396 5389 5383 5376 5369